Wind_Gust
12 22 27 26 16 13 10 13 14 10 12 11 9 11 10 10 7 9 8 10 6 7 9 9 13 12 14 15 16 16 11 10 7 8 7 11 13 12 12 11 12 14 14 10 10 11 12 14 16 14 14 17 16 16 15 17 18 17 16 14 14 12 14 12 11 10 10 9 10 12 15 16 15 13 13 15 15 15 14 15 15 14 14 14 11 10
11 17 19 11 13 16 15 11 12 13 7 12 11 10 10 7 13 8 7 8 6 7 12 13 18 17 14 16 18 16 15 16 12 7 7 9 13 15 13 12 12 12 6 7 10 9 8 10 11 13 16 15 17 17 15 18 19 17 13 12 14 13 8 9 9 9 9 8 8 6 8 9 9 9 12 15 16 15 15 15 15 14 13 15 14 13
21 24 12 13 10 12 11 10 10 15 10 7 9 9 9 11 8 10 5 7 7 6 11 11 20 14 10 13 17 19 16 15 13 10 8 7 12 14 15 14 13 10 11 8 16 10 10 10 10 12 14 15 17 18 20 17 20 18 18 18 17 8 6 5 5 6 8 9 10 11 11 9 8 8 10 13 14 15 13 12 16 13 10 16 17 17
20 15 13 10 12 15 9 9 11 11 8 10 9 11 13 9 12 15 5 7 9 8 15 15 22 15 11 6 14 19 17 14 13 14 14 12 9 7 10 13 13 13 16 17 18 17 9 12 13 12 18 19 19 21 18 18 18 16 18 16 12 6 5 5 6 8 11 9 9 6 6 6 7 8 9 13 12 12 10 13 13 12 14 13 12 17
14 13 12 14 10 14 14 9 14 13 12 4 8 10 8 9 8 9 11 6 5 8 9 17 19 14 15 13 16 17 15 16 17 15 19 17 14 12 13 11 11 13 15 18 16 10 11 15 20 24 21 23 20 17 14 13 11 14 15 13 9 6 6 4 5 6 4 4 4 4 5 7 9 9 10 11 12 10 10 11 9 11 13 16 16 14
11 8 14 15 11 10 15 11 10 15 12 10 9 12 12 8 8 7 6 6 8 11 8 7 15 9 10 10 15 18 18 21 18 19 20 19 19 17 16 14 14 13 13 15 15 14 14 20 21 23 19 19 14 11 12 12 11 10 10 10 10 10 8 7 7 7 6 4 4 5 7 8 7 8 9 12 12 9 12 16 13 11 12 14 13 12
12 10 16 17 15 10 14 15 11 11 14 12 16 13 10 10 9 8 8 6 9 13 10 6 10 13 7 11 15 15 15 17 17 20 18 19 18 16 16 16 16 17 18 15 14 15 19 18 19 14 13 12 14 9 11 9 12 13 9 8 8 8 6 6 6 5 6 6 6 6 7 7 8 7 9 9 11 11 13 13 12 12 15 15 14 13
13 13 10 11 13 14 11 14 11 13 13 20 6 17 11 10 11 12 10 9 7 7 6 7 10 18 16 11 12 14 13 17 17 19 19 19 17 17 16 17 16 19 19 18 17 16 18 18 13 15 14 15 17 16 15 13 13 14 12 8 6 6 8 6 5 5 6 6 6 6 5 6 7 8 9 9 10 11 15 18 16 12 14 15 15 12
14 17 14 15 10 13 17 11 13 14 19 12 7 16 18 17 14 10 10 9 5 6 9 9 7 17 9 9 11 13 12 17 16 17 17 15 15 16 17 19 19 20 20 19 21 22 18 17 17 15 18 18 19 17 16 15 15 14 11 12 8 7 9 8 7 6 6 6 6 8 10 11 12 14 14 14 16 15 14 18 16 13 13 13 17 18
12 17 19 16 18 17 11 13 17 17 20 9 11 10 11 11 11 7 9 12 6 8 9 12 8 15 9 12 12 10 14 14 13 14 16 17 16 16 17 18 18 19 20 20 19 18 17 15 15 12 12 17 17 13 13 13 13 11 9 10 11 11 10 10 10 8 7 9 10 9 11 13 14 17 18 17 15 16 14 17 16 14 15 14 14 15
6 6 7 14 20 17 15 8 16 21 8 13 15 16 11 11 8 8 9 7 11 10 10 7 8 10 16 8 8 10 9 8 9 12 14 15 16 17 18 19 19 19 20 19 19 19 19 17 17 17 20 19 18 15 14 12 11 13 13 12 12 8 8 8 9 9 8 10 12 14 13 14 16 16 15 17 17 17 16 18 17 17 16 13 14 14
7 8 15 13 7 10 11 14 7 7 10 17 15 14 17 10 8 8 7 8 13 12 7 8 6 8 17 10 11 7 7 11 10 10 12 14 17 18 17 18 19 19 19 21 22 19 19 20 20 18 20 20 19 18 18 16 14 13 14 12 11 10 6 7 9 9 11 14 15 15 15 16 18 13 16 18 20 20 20 19 18 17 15 13 11 12
9 13 8 4 7 12 13 15 9 10 11 10 11 18 24 17 14 16 13 17 17 13 9 6 6 12 12 9 10 8 9 8 8 10 12 15 17 18 18 18 19 19 20 22 21 20 21 20 18 18 18 20 22 22 20 19 17 16 16 16 14 12 9 7 8 10 12 13 16 18 19 18 15 11 15 18 18 20 20 21 19 18 17 15 14 15
13 8 6 6 4 8 20 22 18 17 17 13 23 22 26 26 21 14 11 8 8 10 8 8 7 12 9 9 5 10 8 6 10 12 16 18 18 17 17 16 18 19 20 19 20 19 18 19 18 18 19 19 19 19 20 20 20 18 18 17 17 14 14 14 11 10 11 12 13 14 15 16 11 12 16 19 19 18 19 18 19 18 18 18 18 16
18 19 20 15 18 10 20 15 22 15 18 20 7 20 13 16 27 23 23 22 18 13 8 8 12 17 17 14 9 8 7 8 12 15 15 17 16 15 16 18 19 19 18 17 18 18 17 17 16 15 14 14 15 18 20 21 21 20 19 20 20 20 19 18 16 15 16 14 14 16 17 16 12 14 16 18 16 15 16 16 17 17 16 17 16 20
13 14 10 14 4 17 19 13 14 16 17 11 9 9 14 18 12 12 10 10 13 14 9 11 9 9 10 7 8 8 8 13 15 15 17 17 16 17 19 20 20 20 20 20 19 19 19 17 15 17 18 19 18 17 17 18 18 18 18 18 19 19 18 18 18 19 19 18 17 16 17 17 15 16 17 16 13 14 14 13 15 17 17 16 15 16
9 17 4 8 6 19 21 18 12 20 25 19 14 21 11 10 19 16 6 8 7 12 8 5 7 10 8 9 14 12 15 14 14 14 16 16 16 16 17 17 17 17 18 18 19 19 19 19 20 21 21 22 22 23 23 22 20 19 18 18 19 18 17 18 18 18 19 20 18 16 17 17 16 16 16 17 14 14 14 15 16 19 19 16 15 16
18 10 5 13 12 11 8 8 10 6 12 23 21 18 10 7 10 15 17 7 8 14 11 6 9 11 17 16 16 16 17 16 16 16 15 14 15 16 15 16 16 16 15 15 16 15 16 16 17 17 16 16 18 20 22 22 19 19 18 17 17 17 18 18 17 17 16 17 18 19 19 17 17 17 16 14 14 13 14 15 17 18 18 17 16 17
10 12 8 7 6 8 6 15 13 7 9 16 14 20 22 12 16 8 18 11 15 11 11 8 7 10 16 8 19 19 19 17 17 16 14 14 14 13 13 14 15 15 16 18 17 18 19 19 19 18 16 17 18 18 19 19 19 19 18 19 19 20 18 17 16 14 15 15 16 17 18 18 18 17 16 15 15 15 16 17 18 17 17 15 15 17
7 12 9 6 9 8 10 14 17 15 7 9 11 17 9 11 9 16 10 11 14 9 9 9 8 13 17 11 20 20 18 17 16 16 14 13 13 14 15 15 17 15 16 16 16 16 17 17 18 19 20 21 21 20 18 17 18 18 18 19 20 20 20 19 19 18 16 15 16 16 17 16 16 16 17 16 16 18 18 18 16 17 15 15 16 18
8 6 16 9 6 10 21 16 16 21 17 12 21 14 11 11 8 13 10 9 13 19 11 15 11 17 11 9 18 20 19 17 18 18 15 13 13 14 13 14 14 16 17 18 17 16 18 18 19 21 21 21 20 17 15 16 19 18 18 20 20 21 21 20 18 18 17 17 17 16 14 15 16 19 19 16 19 19 20 19 14 15 13 13 16 17
8 6 10 9 16 13 6 6 7 11 15 22 23 18 15 17 18 19 10 8 9 16 19 16 15 12 8 6 10 20 19 18 18 22 18 13 14 13 14 14 15 16 16 15 14 15 17 19 19 19 21 18 19 18 19 19 17 19 21 22 21 20 20 20 20 18 17 17 18 18 19 17 16 19 20 18 16 19 19 18 17 13 14 14 16 17
9 10 10 9 10 10 5 8 7 8 9 9 11 18 11 10 15 14 17 10 9 10 10 10 11 7 9 6 9 17 19 18 17 21 19 14 14 14 15 13 14 15 14 14 15 16 17 18 17 18 19 19 19 18 18 18 19 21 20 20 19 19 20 20 20 19 18 18 17 18 19 18 17 17 15 15 13 16 16 18 17 16 16 16 16 17
7 11 11 8 6 8 7 5 11 8 7 14 12 9 10 16 12 15 13 17 16 10 13 8 8 8 8 12 13 19 20 19 17 16 19 15 14 15 14 13 13 13 12 13 13 14 16 16 17 18 18 20 20 19 19 19 19 20 20 20 19 19 20 21 20 20 20 19 19 19 19 20 16 16 17 18 17 17 20 22 19 18 19 18 17 17
20 8 12 11 11 10 10 9 9 7 12 11 9 8 7 9 11 9 13 8 15 13 9 18 15 10 11 12 14 18 19 19 19 16 16 17 14 14 13 13 13 12 13 15 16 16 18 19 19 19 19 19 19 19 19 20 20 19 20 19 20 19 18 18 19 20 20 20 20 19 19 18 17 15 15 18 19 20 18 15 13 12 16 18 17 17
11 6 10 12 12 14 15 15 16 13 9 8 7 8 8 7 15 13 11 11 11 10 8 12 9 6 11 13 15 16 18 18 16 15 13 15 16 15 13 14 13 13 14 14 15 16 17 16 18 19 19 19 19 20 20 20 20 19 19 18 17 18 19 18 18 18 19 20 21 19 18 19 18 16 17 18 19 21 20 20 18 18 18 19 19 18
16 10 9 9 13 13 7 6 8 6 9 10 6 10 8 8 10 10 11 11 14 12 12 9 12 18 14 16 18 16 15 18 16 14 15 16 16 16 14 14 13 13 14 14 13 14 15 16 18 18 18 18 18 19 20 20 20 20 20 20 20 19 19 18 18 18 18 19 20 21 19 19 19 20 17 17 20 19 20 21 21 21 21 20 21 20
13 14 11 18 18 10 7 5 7 6 12 8 7 7 9 7 8 10 12 13 13 20 11 8 15 26 25 20 17 18 16 16 15 14 14 15 16 15 14 13 13 14 13 13 14 16 16 16 16 17 18 18 20 20 19 18 18 19 20 21 21 21 21 20 18 18 18 18 20 22 23 22 20 20 19 18 17 19 20 20 20 19 18 18 20 21
13 12 7 13 13 14 10 11 12 20 17 15 14 10 10 9 6 9 7 8 8 12 12 15 21 17 20 19 19 17 16 16 15 15 14 16 17 15 14 14 14 14 13 14 15 15 15 15 16 16 17 18 19 20 19 19 18 17 17 17 20 20 21 20 19 19 19 18 19 20 23 23 22 21 20 18 17 18 18 18 18 18 19 18 20 20
18 11 8 14 21 18 14 10 7 18 16 19 17 15 14 12 14 15 14 9 9 7 8 20 21 16 11 14 16 17 17 18 17 15 15 17 16 14 14 14 14 13 14 15 16 15 14 15 15 15 16 17 18 19 19 19 19 18 19 19 19 19 21 21 19 20 20 19 19 20 21 23 23 23 21 19 17 17 17 17 17 17 19 20 20 20
12 11 13 7 12 12 14 12 13 12 12 19 16 16 15 15 18 17 15 11 14 18 18 22 22 15 9 13 18 17 17 17 17 17 15 15 13 13 14 13 12 13 15 14 15 15 14 14 15 15 15 16 17 18 19 19 18 18 18 19 19 20 21 21 22 21 21 20 20 21 21 21 21 22 21 19 17 15 16 17 17 17 17 12 14 14
13 14 7 7 12 8 8 12 13 17 20 23 19 17 16 11 12 10 10 7 7 17 19 20 18 15 11 14 18 17 17 16 17 16 12 12 12 13 14 13 12 13 14 15 14 14 15 15 15 15 16 16 17 17 18 19 19 20 20 20 21 21 21 21 22 22 21 22 21 21 22 22 22 22 21 19 19 17 16 16 14 10 12 12 13 13
9 24 15 9 14 7 4 7 7 6 11 11 9 10 9 11 13 14 15 15 12 18 22 15 12 15 18 16 18 14 15 15 16 14 11 12 12 12 12 14 13 13 13 13 14 13 14 13 14 14 15 15 17 17 18 17 18 20 21 21 20 19 19 20 23 20 22 23 23 23 22 22 22 21 20 18 18 15 13 13 10 12 15 15 11 11
8 15 12 6 14 12 9 5 6 9 14 10 8 8 7 5 8 12 11 10 12 9 9 11 18 20 17 16 17 17 14 13 13 11 10 10 12 12 13 14 13 12 11 12 13 13 13 13 14 15 14 14 16 16 15 16 17 17 18 19 19 20 21 23 24 20 21 24 26 25 23 23 22 21 21 18 15 13 11 11 9 10 10 10 9 12
11 11 9 7 16 15 8 6 10 11 9 6 7 7 7 12 17 20 15 13 13 17 20 20 20 17 14 14 16 18 19 18 16 14 12 11 11 13 14 14 13 12 11 11 13 13 13 14 15 15 16 16 16 16 18 20 19 17 18 20 21 21 21 23 24 24 26 27 27 27 25 24 22 22 21 20 18 17 18 17 12 11 9 10 11 12
10 14 12 11 9 11 8 8 14 10 7 8 6 8 10 14 17 18 17 12 9 12 18 21 16 17 17 17 17 18 20 20 19 15 13 13 12 12 13 13 12 12 12 11 10 11 12 13 13 14 15 14 17 19 20 20 19 18 18 19 21 20 21 21 25 28 28 27 27 27 25 24 22 22 21 21 19 20 19 17 16 14 13 14 15 15
15 13 12 13 8 13 9 9 8 6 7 8 8 10 9 10 9 7 7 7 6 10 15 20 17 16 17 17 18 18 19 19 17 16 14 13 13 13 13 13 12 11 10 9 9 10 10 10 10 13 13 15 18 20 20 19 19 18 19 21 21 21 22 23 25 27 26 24 25 25 24 24 23 21 22 22 22 21 20 18 17 15 13 16 19 19
8 7 9 13 7 6 16 13 9 5 12 12 8 6 7 8 8 6 8 9 7 11 16 20 20 18 17 18 17 18 14 13 11 11 11 11 12 12 13 12 11 11 10 9 9 10 11 10 10 13 15 16 17 19 18 18 19 19 20 21 21 23 24 26 25 25 24 23 24 24 24 23 22 23 23 23 23 21 19 17 15 15 13 16 19 22
16 17 10 10 14 10 7 13 16 16 13 5 13 8 7 6 5 8 6 8 14 16 19 21 21 18 19 20 19 15 12 13 9 10 9 10 11 11 12 11 10 11 11 10 10 10 9 10 9 12 16 17 20 19 17 17 19 21 21 21 21 23 25 25 24 24 23 21 22 22 24 22 21 21 23 24 22 22 20 19 15 12 12 16 18 18
16 10 8 13 9 6 10 9 9 11 9 5 9 5 5 5 5 7 9 10 17 18 19 19 21 22 20 18 14 9 6 8 15 13 12 12 11 9 10 11 12 13 12 11 11 9 9 10 14 19 20 19 18 16 16 17 20 20 21 21 21 23 24 24 22 20 18 17 18 19 24 24 24 23 21 21 21 22 21 17 15 15 15 18 18 18
10 9 11 9 8 8 8 6 6 6 6 6 7 4 6 7 7 8 11 8 16 18 18 16 18 18 19 14 7 11 11 15 20 17 14 13 13 12 11 11 12 12 12 13 12 8 14 15 17 17 16 15 17 16 16 17 19 20 20 21 23 23 22 21 20 20 19 18 18 19 21 23 24 24 22 20 18 20 22 20 15 13 18 20 19 19
7 7 5 6 9 9 5 7 7 6 7 6 6 5 6 7 10 10 9 9 19 18 17 18 20 18 16 15 17 18 20 21 20 18 17 14 15 11 10 12 14 13 12 10 10 11 11 13 15 16 16 14 15 15 16 17 19 20 20 22 24 21 20 20 20 20 20 20 19 17 19 22 23 23 23 22 19 20 21 20 19 17 18 19 18 20
7 9 7 8 10 9 6 9 5 8 7 6 10 7 7 5 7 11 16 14 13 19 20 18 20 18 18 21 20 22 22 21 20 19 18 16 15 13 12 14 13 13 13 13 14 13 12 13 15 15 13 12 13 15 16 16 17 18 19 23 20 19 18 18 19 19 20 22 22 20 19 20 21 21 22 23 22 19 18 17 19 20 17 16 17 20
3 10 9 8 10 11 9 14 12 8 10 6 7 11 8 7 9 14 17 22 16 20 21 21 18 16 18 24 24 21 21 20 19 18 18 15 14 11 11 11 11 11 12 12 12 11 11 14 15 15 15 14 15 16 16 17 18 19 20 20 17 17 18 19 19 19 20 20 22 21 20 17 18 20 20 21 21 22 21 22 21 20 20 15 18 19
7 5 8 12 9 8 9 8 7 9 6 6 6 6 7 9 11 13 16 20 24 19 19 23 20 17 20 24 24 23 21 17 17 17 18 16 15 13 12 11 10 9 9 10 10 10 11 14 14 15 16 17 17 17 17 16 17 17 18 17 17 19 19 19 20 21 21 20 20 22 19 16 17 19 20 19 21 22 24 23 23 23 21 20 19 18
8 8 8 15 14 13 14 11 8 10 11 12 13 12 13 13 13 14 18 21 16 19 16 22 19 22 22 22 24 20 20 17 17 16 15 14 14 10 9 10 10 10 11 12 13 13 12 13 14 15 16 18 17 17 15 15 15 16 14 15 16 18 19 19 20 20 20 19 18 19 20 20 19 18 22 20 20 22 22 22 22 22 21 20 19 17
7 6 4 16 17 10 8 7 9 11 12 13 14 15 14 13 14 15 17 19 19 17 19 17 20 20 20 18 21 22 21 17 17 15 13 13 12 9 10 10 10 10 12 13 12 11 14 13 15 15 14 15 15 13 13 14 15 14 13 14 15 16 17 19 19 19 19 20 18 16 18 20 19 18 19 22 20 20 19 20 19 18 18 17 18 17
8 8 13 13 12 7 12 9 11 13 13 11 13 15 15 15 17 15 19 19 20 19 20 20 19 20 17 21 21 22 20 18 19 19 18 15 14 12 12 12 12 13 12 10 10 11 11 12 12 14 15 16 15 14 14 16 17 17 16 15 15 13 15 17 18 19 19 19 18 18 17 17 12 16 18 19 19 19 18 18 18 20 20 19 16 15
10 12 12 12 13 14 14 13 15 16 16 13 13 13 15 18 21 20 21 21 21 24 21 18 16 16 17 21 20 20 21 19 19 19 18 15 14 13 12 11 10 9 8 10 9 10 11 10 12 12 13 13 12 12 14 14 15 16 16 15 14 13 14 15 15 16 17 17 18 18 16 16 16 15 15 15 18 19 16 14 16 18 18 16 13 13
14 13 17 19 20 16 15 18 22 21 15 11 12 14 17 18 21 21 19 20 17 19 19 20 17 15 15 15 16 19 21 19 15 15 15 13 12 11 11 12 10 9 8 6 6 9 10 10 11 12 14 14 13 14 15 15 15 16 17 17 16 15 15 14 15 15 16 17 17 17 16 16 16 14 14 14 14 14 17 13 15 12 16 13 13 17
9 16 21 17 19 19 15 20 7 16 19 15 16 16 16 13 17 19 17 17 16 16 17 19 21 19 16 13 14 17 17 17 15 14 15 14 13 10 10 11 11 10 10 9 11 12 13 13 14 15 17 16 15 16 15 15 16 17 17 16 15 15 15 15 14 15 15 15 15 16 15 15 15 13 13 12 12 12 11 13 17 16 16 15 15 15
Wind_Speed
4 10 12 12 8 7 6 7 9 4 5 6 4 5 4 4 2 2 3 2 1 2 3 2 7 6 7 8 9 9 3 3 1 3 1 4 6 5 6 5 6 7 7 5 5 6 7 8 8 7 5 8 8 8 8 8 7 5 4 5 5 5 6 4 3 3 4 3 3 4 5 5 5 4 4 5 6 6 4 5 6 6 4 5 4 5
5 7 10 6 8 10 10 6 8 8 3 7 6 5 4 3 5 3 3 2 1 3 5 6 11 9 7 9 10 9 8 9 5 1 2 3 6 7 8 7 7 6 0 3 5 3 4 4 6 5 5 5 6 4 6 9 11 11 9 7 7 5 2 4 4 4 3 2 1 1 2 1 3 3 2 5 6 6 5 6 6 5 4 7 7 6
9 11 6 7 5 7 7 6 6 9 6 3 4 3 3 4 2 1 1 3 1 1 4 5 11 6 4 7 10 11 8 7 6 4 2 2 5 6 7 8 7 6 6 4 8 5 3 3 3 2 3 5 10 11 12 9 11 7 5 5 6 4 3 2 2 2 2 2 4 5 5 4 2 2 2 5 5 5 4 5 7 5 5 8 8 8
9 6 7 5 7 10 4 5 7 6 4 3 3 4 5 3 5 5 1 2 4 2 6 8 12 6 5 1 7 9 8 7 7 7 7 6 3 2 4 6 7 7 8 10 10 10 3 2 4 6 10 10 10 11 7 7 9 7 8 5 4 2 2 1 1 3 5 5 6 4 3 2 2 1 2 5 6 4 4 6 6 4 6 7 6 9
5 7 7 9 6 10 8 5 9 6 5 1 4 4 3 4 2 1 4 1 1 4 2 10 9 6 7 4 5 8 7 8 8 8 10 8 7 5 6 5 5 6 7 9 9 6 2 9 12 14 10 9 10 8 7 6 6 4 4 6 5 3 2 1 2 3 1 1 1 1 1 3 3 1 2 4 5 4 4 5 3 5 6 7 5 6
5 4 9 9 7 7 9 5 6 8 5 4 4 7 7 4 4 1 2 1 2 4 3 2 5 2 3 4 7 7 7 9 8 9 10 9 9 8 8 7 7 6 7 8 8 8 8 12 8 11 9 7 4 4 6 7 5 6 6 6 6 5 4 3 3 3 3 2 2 2 3 3 2 2 3 3 5 3 5 6 6 5 6 7 6 5
4 5 10 11 9 7 9 8 7 6 6 5 6 8 5 5 4 3 4 2 3 4 3 2 3 3 0 4 7 7 7 9 8 10 9 9 9 8 8 8 8 9 10 8 8 8 12 8 7 5 5 4 4 1 4 6 7 8 5 4 2 2 2 2 2 2 2 3 3 3 4 4 4 3 4 3 4 5 6 6 6 5 8 7 6 6
5 7 5 7 8 8 6 7 5 7 6 7 1 11 7 6 6 7 4 4 1 3 1 0 2 6 5 3 5 4 6 8 9 9 9 9 10 10 10 10 10 11 12 10 10 10 10 8 7 8 8 8 8 9 8 6 8 9 8 5 3 2 2 2 2 2 2 3 3 3 3 2 2 5 5 4 4 6 6 9 8 6 7 7 5 4
8 8 8 9 7 5 8 4 8 9 7 2 3 10 11 11 9 5 4 3 1 2 3 3 2 4 1 2 3 3 4 9 9 8 8 8 8 8 10 11 12 12 13 12 12 13 10 8 9 9 11 11 12 9 9 8 9 8 7 7 5 3 3 3 3 3 3 3 3 4 5 6 5 6 6 7 7 5 5 10 7 7 7 6 9 9
3 10 11 10 9 7 4 7 10 11 9 3 6 5 5 5 5 2 3 5 2 2 3 6 2 3 2 1 1 3 7 7 6 7 9 10 9 9 9 11 12 12 12 12 12 10 10 9 9 7 7 10 9 7 7 7 7 6 5 6 7 6 4 4 4 3 4 6 5 5 5 6 6 5 5 4 5 5 6 8 9 7 6 6 6 8
2 3 2 4 8 7 8 3 8 14 2 8 9 9 5 3 2 2 3 1 4 3 3 2 3 2 4 2 1 3 3 2 3 5 7 8 10 11 11 12 11 11 11 11 11 11 12 10 11 11 12 11 10 8 8 7 6 7 7 6 7 4 4 4 5 5 5 5 6 6 7 8 9 9 7 7 7 7 8 8 8 7 7 6 5 5
3 4 6 3 2 4 6 7 3 2 5 11 4 5 7 3 1 2 1 0 3 3 2 2 1 4 6 3 1 1 3 6 5 5 6 8 10 10 10 10 11 12 11 12 13 10 11 13 13 11 13 12 11 10 10 8 8 7 7 6 6 4 2 2 4 5 5 7 8 8 9 9 10 7 8 10 11 10 10 9 8 7 6 6 5 6
4 6 1 1 3 7 6 8 3 5 5 4 4 8 11 5 2 3 3 5 5 2 2 1 1 4 4 4 4 4 4 4 3 5 6 9 11 11 11 11 10 11 12 12 12 12 12 11 9 11 11 12 14 12 12 11 9 8 8 9 8 6 5 2 3 5 6 7 8 9 10 10 7 5 7 9 9 9 9 9 9 8 8 7 7 7
4 1 1 2 1 2 11 9 7 7 7 6 10 10 11 9 7 3 2 2 1 1 2 1 2 4 2 2 1 5 4 3 5 7 10 11 11 10 10 10 10 11 12 11 11 11 10 11 10 11 11 12 11 12 11 11 11 9 9 10 10 8 7 8 6 5 6 6 7 8 7 7 5 7 7 9 9 9 9 9 10 9 7 7 9 7
7 8 8 8 6 5 10 6 11 6 8 9 1 8 4 3 5 7 6 7 6 4 2 0 4 5 8 5 4 3 3 3 6 8 9 10 10 9 9 10 12 12 11 10 10 10 10 9 10 8 8 8 9 11 12 12 12 11 10 10 11 10 11 10 9 8 9 8 7 8 9 8 6 6 7 7 7 7 9 8 8 7 6 8 8 8
7 2 1 8 1 10 11 7 8 9 8 4 2 3 4 7 1 4 1 1 4 4 2 5 2 2 3 2 3 3 3 7 9 9 11 11 9 10 10 11 11 11 11 11 11 11 11 10 9 10 10 10 9 10 9 11 10 10 10 10 11 11 11 10 11 11 11 10 9 8 9 8 7 7 8 7 6 6 6 7 7 8 9 8 6 6
2 5 2 3 2 12 13 10 4 11 7 7 5 8 2 4 8 5 2 2 2 2 2 2 2 3 3 4 8 7 8 9 9 9 9 9 10 9 9 9 10 9 10 10 11 11 11 11 12 12 12 12 13 13 13 12 11 11 11 10 11 11 11 11 11 11 11 11 11 10 9 8 8 8 9 8 8 7 7 8 8 9 10 8 7 7
7 4 2 5 7 6 5 3 6 1 3 8 7 7 4 0 3 3 5 0 1 4 2 0 3 4 8 5 9 10 10 10 10 9 9 8 9 9 8 8 8 9 9 9 9 9 10 10 10 10 9 10 10 12 13 13 12 10 10 10 10 10 11 11 10 10 9 10 10 11 11 10 10 9 9 8 7 6 7 8 8 7 7 9 8 7
3 4 3 4 1 4 3 9 6 3 5 7 5 10 7 3 7 2 3 3 5 2 2 2 2 3 7 2 10 12 12 10 10 9 8 8 7 7 7 8 9 9 9 10 10 10 11 11 11 10 9 10 11 11 11 10 10 10 11 11 11 12 11 10 9 8 7 8 8 7 9 10 9 8 7 7 7 8 9 10 9 9 9 8 8 7
2 2 2 1 4 3 4 6 6 7 2 4 4 7 4 2 3 5 0 3 3 3 3 2 2 2 6 3 12 12 11 10 9 9 8 7 7 7 7 8 9 9 9 9 9 9 9 10 11 12 12 12 12 12 10 10 10 11 11 11 12 12 12 11 11 10 9 8 8 9 8 8 9 9 9 8 7 8 10 10 9 9 9 8 7 8
1 2 4 2 1 3 7 5 7 10 7 5 8 4 3 3 2 3 3 1 3 5 2 5 2 5 3 2 10 12 11 10 11 10 8 6 7 8 7 7 7 9 9 9 9 9 10 11 11 12 12 11 10 8 8 8 10 10 10 12 12 13 13 12 11 10 9 9 9 10 9 8 9 10 10 9 8 8 10 10 8 8 7 7 8 8
1 1 3 3 6 5 1 0 3 5 8 10 10 7 6 8 7 9 3 2 2 5 5 5 3 3 1 0 4 11 11 10 11 13 10 7 7 7 8 9 8 8 9 9 8 9 9 11 11 10 9 8 8 8 10 9 9 11 13 12 11 11 11 12 11 10 10 9 9 10 11 10 9 10 11 10 9 8 8 10 9 8 8 8 8 9
2 2 3 3 3 3 1 3 2 2 3 4 3 8 5 2 6 4 6 3 3 4 3 2 2 1 3 1 3 9 11 10 9 12 11 7 7 8 8 8 8 9 8 8 8 8 9 10 9 8 9 9 10 9 10 10 10 11 12 12 10 10 11 11 11 10 9 10 10 11 10 10 9 9 9 10 7 7 8 10 10 9 9 9 9 9
1 1 3 2 1 1 1 1 6 3 2 8 5 3 3 7 5 6 4 8 5 4 4 2 2 1 3 6 7 11 13 11 8 10 12 8 7 8 8 8 8 8 7 7 6 7 8 8 8 8 10 11 11 11 11 10 10 11 10 11 10 11 11 11 10 10 11 10 11 12 11 10 9 9 10 10 8 9 11 12 11 10 10 9 8 8
3 2 2 4 2 3 4 4 3 3 3 3 3 2 2 4 6 4 6 2 3 5 2 7 5 2 4 6 8 11 12 12 11 10 9 9 7 7 7 7 7 7 7 8 8 8 8 9 10 10 10 10 10 10 10 10 10 10 10 9 10 9 10 9 9 10 11 11 12 11 11 11 9 8 9 10 10 12 11 8 6 5 7 8 8 8
3 1 1 3 4 5 4 5 5 5 3 2 2 3 4 2 9 6 4 3 3 4 3 3 2 1 6 7 9 9 11 11 10 9 8 8 9 8 7 7 7 7 7 8 7 8 9 8 9 10 11 10 10 10 10 11 10 10 10 10 9 10 10 10 9 9 11 11 12 11 11 10 10 10 10 11 11 11 12 10 10 9 8 9 10 10
4 3 4 1 3 3 1 2 4 1 3 3 2 4 3 4 4 4 4 3 4 5 4 2 4 9 8 10 11 9 9 11 10 8 8 9 9 9 8 7 7 7 7 7 6 7 8 9 11 11 11 10 10 11 10 10 11 11 11 11 11 11 10 10 9 10 10 11 12 12 11 11 11 11 10 10 11 10 10 10 8 9 10 10 11 11
5 5 6 10 11 5 3 1 2 2 6 3 2 2 3 3 4 4 4 4 7 9 3 1 8 13 14 13 11 11 10 10 9 8 8 8 9 8 8 7 8 8 6 6 7 9 9 9 9 10 10 11 11 11 10 9 9 10 11 11 11 11 11 10 10 9 10 10 11 12 13 12 12 11 11 10 10 11 10 10 10 10 10 10 11 11
4 3 3 7 8 8 5 6 7 10 10 8 8 5 4 4 1 4 3 3 2 4 3 9 13 8 11 12 11 10 10 9 9 9 8 8 10 9 8 8 7 8 7 7 8 9 9 9 9 10 10 10 11 12 11 9 9 9 9 10 11 10 11 11 10 10 10 10 10 11 12 13 12 11 11 10 9 10 10 9 8 9 9 10 10 9
6 4 4 8 13 10 8 5 3 11 10 11 10 9 7 7 7 8 8 4 4 2 2 11 13 9 5 8 10 10 11 11 10 9 7 9 10 8 7 8 8 7 8 8 9 9 8 8 9 9 9 10 11 11 11 10 9 9 10 10 11 11 12 11 11 11 11 10 10 11 11 12 12 12 12 10 9 9 9 9 9 8 9 11 11 10
2 3 7 2 5 6 8 6 7 6 7 12 10 10 9 9 11 9 8 6 8 10 10 15 14 8 4 8 11 10 10 9 10 9 8 9 8 8 8 8 7 7 8 8 9 8 8 8 9 9 9 9 10 10 10 10 9 9 10 10 10 11 12 11 12 12 12 11 11 11 11 11 11 11 11 10 9 8 9 9 9 8 5 2 4 8
4 4 2 1 4 3 4 7 8 10 12 15 12 11 9 5 6 5 4 2 1 9 12 13 9 6 5 8 11 10 10 9 10 9 7 6 7 8 8 7 7 7 8 8 8 8 8 9 9 8 9 9 9 10 10 10 9 10 10 11 11 11 10 10 12 11 11 13 12 12 12 11 12 12 11 11 10 9 9 8 7 3 5 7 8 7
2 9 5 2 5 2 1 2 2 2 6 5 5 4 5 6 7 7 8 9 6 11 12 7 4 7 10 9 11 9 9 9 10 8 6 7 7 7 7 8 7 7 8 8 7 7 8 7 7 8 8 7 8 9 10 9 9 10 10 10 10 9 10 11 13 11 11 11 13 13 12 13 12 11 11 10 9 8 7 7 5 6 7 7 6 5
3 7 4 1 3 4 4 2 1 3 5 2 2 3 3 1 3 6 5 5 7 4 2 4 9 12 11 9 11 11 9 7 7 6 5 5 6 7 8 8 7 7 7 7 7 7 7 6 6 7 7 7 8 8 8 8 8 8 8 9 9 10 11 13 13 10 12 14 15 14 13 13 12 12 11 10 8 7 6 5 4 5 5 5 5 4
6 4 3 2 4 5 2 2 3 4 1 2 2 2 1 5 10 13 9 8 8 10 12 12 12 11 9 8 9 11 11 11 10 8 7 6 6 7 8 8 8 7 6 6 8 7 7 7 7 8 8 8 8 9 9 9 9 8 9 9 10 10 10 11 12 14 15 14 15 15 14 14 12 11 11 11 10 9 10 10 7 6 5 5 5 5
4 5 3 3 2 3 2 2 3 1 2 4 2 4 6 8 10 12 10 7 5 6 11 12 10 10 11 11 10 10 12 13 11 9 7 7 7 6 7 7 7 7 7 6 6 6 6 7 7 7 7 6 8 9 9 10 9 9 9 10 10 10 11 11 14 15 14 14 15 15 14 13 12 11 11 12 11 10 10 10 9 8 7 6 6 6
8 5 3 4 3 3 3 3 3 0 2 3 3 4 3 4 3 2 2 2 3 5 9 12 10 10 11 10 11 11 12 11 9 8 7 7 7 7 7 7 6 6 5 5 5 5 5 5 5 6 5 8 9 10 10 10 10 9 10 11 11 11 11 12 13 14 14 14 14 14 14 14 13 11 12 12 12 12 11 10 9 8 5 6 6 9
3 2 3 3 1 0 6 5 3 1 4 5 4 2 2 3 2 2 3 4 3 5 9 12 12 11 11 11 10 11 9 6 5 5 5 6 7 8 7 7 6 6 5 4 5 5 6 6 5 6 7 9 10 10 9 10 10 10 10 11 11 12 13 14 13 13 13 13 13 13 13 13 12 13 13 13 13 12 10 9 7 8 6 5 7 11
9 9 4 2 4 3 2 4 4 5 1 1 7 4 3 0 1 3 1 2 6 9 11 13 13 11 11 12 11 8 5 5 3 4 4 5 6 6 7 6 6 6 6 6 5 5 5 5 5 7 9 11 12 11 9 10 11 11 11 11 11 12 13 14 13 12 12 12 10 12 13 12 12 12 12 13 12 12 11 10 8 6 7 5 8 10
8 2 2 5 3 0 3 2 2 1 1 1 5 1 0 1 1 2 2 1 8 10 11 11 13 13 12 11 8 4 1 2 6 6 6 7 6 5 5 6 7 8 7 6 6 4 4 6 8 11 12 12 10 9 9 9 10 11 11 11 11 12 13 13 12 11 10 10 9 9 11 13 14 13 12 12 12 12 11 9 8 8 9 7 7 9
4 2 3 3 2 3 3 2 1 1 0 1 3 0 2 3 2 3 4 2 8 10 10 9 10 11 11 8 3 4 5 7 10 10 8 8 7 7 6 6 7 7 7 7 6 6 7 8 9 9 9 8 9 9 9 9 10 11 11 11 12 13 12 11 11 10 10 9 9 10 11 12 14 14 12 11 9 11 12 10 8 6 8 10 10 10
2 2 1 1 3 3 1 2 2 1 1 2 1 1 2 2 3 3 3 3 10 11 10 10 12 11 9 8 9 9 10 13 13 11 10 9 9 7 6 7 8 8 7 6 6 7 5 6 9 10 10 8 8 8 8 9 10 11 11 12 13 12 10 10 10 10 10 11 10 11 11 12 12 12 12 12 10 11 11 11 10 10 10 10 10 11
1 1 2 2 3 3 1 3 1 2 2 1 5 3 2 1 2 4 7 8 7 10 12 11 11 10 11 12 12 14 13 13 12 12 11 10 9 7 7 8 8 7 7 8 9 8 6 6 8 8 7 7 7 8 8 9 10 10 10 12 12 10 10 10 10 10 10 12 12 11 11 11 13 11 10 12 12 10 10 9 10 11 10 9 10 11
1 1 2 1 3 2 2 3 1 2 4 1 2 3 2 2 2 7 8 11 8 10 11 11 10 9 11 14 14 13 13 13 12 11 11 10 8 7 7 7 7 7 7 7 7 6 6 7 8 8 9 8 8 9 8 9 10 10 11 12 9 9 9 10 10 10 10 10 12 11 10 9 11 11 11 12 11 11 11 12 11 11 10 8 10 10
2 0 1 2 2 0 1 2 1 3 0 2 2 1 3 4 6 7 8 10 12 9 10 11 11 10 12 15 15 14 12 11 11 11 11 10 9 8 7 7 6 5 5 6 6 6 6 7 8 8 10 9 10 9 9 8 9 10 11 9 9 10 10 10 11 11 11 11 11 11 10 9 10 10 11 11 12 12 12 13 12 12 10 11 10 10
3 3 2 6 5 6 7 5 4 5 5 7 7 6 7 8 7 8 11 11 8 10 8 11 11 13 13 13 14 12 12 11 11 10 10 9 9 6 6 6 6 6 7 7 7 7 7 7 8 9 10 11 10 9 8 8 8 9 8 7 8 9 10 10 11 11 11 10 9 10 10 10 11 10 9 11 11 12 12 12 11 10 10 10 9 9
2 1 1 6 9 4 3 2 4 6 7 7 8 9 8 7 7 8 9 10 10 9 10 10 11 12 12 11 13 14 13 11 11 9 8 8 7 6 6 6 6 6 7 8 7 6 7 8 8 8 9 9 9 7 7 8 8 7 7 7 7 8 9 10 10 10 10 10 9 9 9 11 9 8 10 10 9 9 10 10 9 9 10 9 9 9
3 3 5 7 6 2 5 5 6 8 7 7 6 8 8 9 10 9 10 11 11 11 11 12 12 12 11 12 13 14 13 11 12 11 10 9 8 6 6 6 6 7 6 6 6 6 6 7 7 8 9 9 8 7 8 8 9 9 8 8 7 6 7 9 9 9 10 10 9 8 8 8 9 10 8 10 10 9 8 9 9 10 10 9 8 7
4 6 4 6 5 6 8 8 8 10 9 8 7 7 8 10 12 13 13 13 13 15 13 11 10 9 11 13 12 13 13 12 12 12 11 8 8 7 6 6 5 4 4 6 5 5 5 5 7 7 8 8 7 7 7 8 8 8 9 8 7 7 7 7 9 9 9 9 8 8 8 8 8 7 6 6 9 10 8 7 8 7 9 9 6 6
6 5 8 10 10 7 7 8 12 7 6 5 6 8 10 11 13 13 12 12 11 12 11 12 11 9 9 9 10 11 13 11 10 9 9 7 6 6 6 6 5 5 4 2 1 4 5 6 6 7 8 7 7 7 8 8 8 8 8 8 8 8 8 7 7 8 8 7 8 8 7 7 7 7 6 7 6 7 9 11 13 8 6 5 9 12
3 8 9 6 8 8 8 12 3 8 10 8 9 10 10 8 10 12 11 11 10 10 10 12 13 11 9 8 8 10 10 10 9 8 9 7 6 5 4 6 6 5 5 4 6 6 7 7 8 9 10 8 8 8 8 8 8 8 9 8 8 8 8 8 6 6 6 6 7 7 7 7 6 6 5 5 5 6 5 6 9 13 13 11 10 11
Wind_Direction
158 172 187 193 176 163 150 169 180 160 164 101 90 131 145 143 158 297 279 277 300 208 85 82 59 62 37 15 357 353 15 96 241 225 248 222 226 237 248 248 244 237 240 232 219 207 208 211 216 215 210 221 227 234 237 236 237 233 205 162 155 159 171 159 152 179 194 200 218 211 200 209 212 217 222 228 229 227 227 219 208 202 195 105 134 171
188 191 199 147 155 168 175 154 96 98 108 132 127 132 136 197 166 131 109 338 122 250 91 112 85 69 47 25 14 8 36 32 5 272 196 205 211 214 220 231 239 247 65 224 227 157 177 192 209 218 233 240 247 295 336 349 2 354 11 18 50 22 152 181 199 198 208 194 156 293 294 338 312 334 256 229 232 236 228 232 221 211 187 153 182 163
189 204 156 182 122 89 80 127 146 137 131 114 161 134 153 184 296 27 251 282 41 291 89 120 94 68 45 31 31 31 40 39 33 4 14 226 207 224 225 225 236 244 251 248 260 237 180 213 219 243 321 1 25 8 32 36 54 48 72 133 156 210 195 194 164 178 240 247 248 239 238 208 228 210 228 257 253 250 227 212 234 224 182 178 183 138
183 199 188 120 137 111 84 127 124 91 74 140 128 170 193 113 185 169 73 323 25 3 130 125 102 80 58 123 54 41 40 50 53 52 49 34 18 282 252 237 232 247 254 256 254 258 259 349 6 23 45 50 76 84 102 111 125 162 181 150 96 154 158 132 216 210 237 251 254 277 300 121 184 178 183 265 250 233 232 237 232 231 210 214 185 150
166 144 119 135 147 137 132 152 142 157 166 348 189 188 170 179 221 247 143 201 88 48 91 123 99 99 26 26 39 42 48 52 54 60 56 49 41 24 17 12 355 317 295 271 258 260 28 43 56 75 91 96 100 124 142 167 177 179 98 105 137 137 142 158 227 230 300 283 261 269 200 125 139 131 219 232 256 242 247 262 244 224 217 235 227 159
146 140 132 126 142 121 127 137 177 152 176 165 239 207 194 192 190 248 84 185 164 122 215 255 128 79 26 39 40 29 47 54 55 64 56 54 49 40 32 15 2 357 358 351 345 3 44 85 94 97 109 107 115 94 230 199 116 90 119 143 156 157 150 170 182 177 171 169 231 241 252 257 232 153 206 212 263 262 238 248 254 230 226 225 224 195
137 140 164 154 152 137 141 159 187 187 177 178 202 191 212 180 188 164 149 147 165 154 151 359 244 126 341 41 20 24 49 59 62 63 62 58 50 45 38 27 20 16 12 14 19 38 69 86 86 82 91 107 114 131 331 349 66 71 68 52 67 91 105 136 119 146 167 202 212 234 253 256 232 210 206 198 218 240 246 236 237 214 240 227 206 190
123 146 142 135 131 142 135 176 179 178 152 199 155 173 182 166 187 211 165 212 170 38 75 169 259 144 153 80 26 6 81 67 58 56 57 52 48 45 41 38 39 39 37 36 40 60 80 73 80 77 62 48 29 24 15 18 32 66 62 41 30 54 91 115 146 136 150 201 194 205 202 171 141 169 189 159 183 203 237 257 245 214 225 214 168 178
150 163 161 154 153 162 182 164 156 186 173 201 167 175 178 194 206 179 193 144 214 230 168 166 235 131 123 66 21 5 116 59 50 49 49 51 48 44 40 41 43 45 46 51 59 62 72 73 68 66 60 54 50 48 46 42 48 57 56 60 62 63 107 129 144 173 175 185 173 187 198 204 191 189 193 184 213 214 229 253 252 230 223 202 173 198
255 179 180 153 159 182 169 189 160 170 188 217 120 80 66 64 67 203 207 157 178 203 190 172 299 136 130 17 349 56 70 65 51 56 59 57 58 56 51 48 48 51 55 56 61 61 53 58 61 54 61 58 51 40 50 53 58 64 74 81 90 96 95 103 109 129 176 195 200 206 209 213 216 216 201 191 218 229 235 246 249 241 229 219 182 168
98 341 181 159 186 169 167 113 164 176 151 108 140 129 106 70 82 76 66 137 141 215 193 28 292 224 145 169 352 33 37 28 78 64 63 64 66 63 57 52 51 52 53 56 57 58 60 53 49 43 48 52 53 44 39 39 49 62 65 82 89 121 151 172 159 160 168 202 208 208 211 217 219 210 198 203 220 221 222 232 239 238 239 224 196 150
75 99 158 224 139 75 113 106 45 358 126 153 159 146 133 95 135 132 115 186 196 188 87 321 276 274 173 191 205 224 80 64 74 76 73 73 67 64 57 54 53 52 51 50 51 44 45 49 45 40 35 35 43 47 42 36 32 39 45 48 70 73 107 179 183 191 189 179 189 200 206 219 224 199 203 207 218 220 223 223 226 230 230 217 196 156
187 172 234 59 251 137 134 119 95 149 163 202 154 163 175 168 148 179 169 194 209 179 92 313 281 118 27 44 134 129 96 83 48 55 73 76 71 64 59 55 54 52 52 48 44 39 36 37 31 36 33 32 29 27 27 27 23 24 26 25 25 28 7 327 233 235 226 216 196 194 205 221 222 198 201 213 215 217 225 226 224 214 220 210 179 159
212 302 260 227 135 217 148 157 147 164 194 184 189 175 177 169 175 165 170 25 355 113 142 298 264 70 67 131 139 139 103 73 83 69 69 75 71 64 58 53 52 50 48 45 43 39 34 29 27 28 26 23 24 23 23 22 19 18 18 16 13 5 354 345 329 298 274 265 252 229 228 233 237 235 227 234 236 228 227 227 222 217 213 212 211 184
177 194 229 151 197 156 169 163 162 154 165 199 118 195 206 148 171 165 174 175 183 138 130 16 210 140 163 174 124 123 95 115 91 85 79 69 64 63 60 55 51 48 46 45 46 43 39 31 22 21 27 30 22 18 15 14 13 12 11 11 7 3 357 350 334 316 309 301 286 267 258 259 256 254 251 249 245 235 231 228 226 220 219 219 212 205
196 244 226 179 357 159 174 165 144 139 162 191 142 8 168 195 142 122 61 92 136 131 135 32 42 25 67 124 157 167 183 129 106 88 77 67 59 54 47 43 40 40 35 32 32 31 30 31 29 25 25 27 26 23 20 16 11 9 5 6 6 3 357 352 344 330 318 316 306 290 278 278 279 276 277 275 256 239 237 240 233 234 229 227 215 197
96 189 64 150 79 174 179 140 176 158 172 170 165 201 182 63 107 105 108 22 41 66 70 19 132 133 123 163 162 183 161 134 115 93 84 77 73 67 59 50 45 42 35 27 26 24 21 20 22 20 15 10 8 12 15 13 12 11 5 3 359 359 354 349 346 343 336 322 310 302 297 289 286 285 281 276 269 255 243 234 231 232 232 220 207 208
156 164 335 153 194 238 34 135 120 319 125 112 197 171 122 89 40 135 155 47 31 184 102 31 139 154 166 162 179 185 167 142 128 105 95 89 77 67 59 53 49 45 43 40 35 28 30 31 27 24 20 13 10 8 7 8 7 6 3 4 0 357 350 345 341 342 340 335 320 309 307 306 303 299 292 285 269 255 245 236 233 233 237 231 219 213
202 154 171 257 180 88 131 128 93 68 310 169 170 154 182 155 189 2 116 162 156 138 123 124 273 228 219 130 167 179 174 153 128 116 97 78 73 71 63 58 54 46 39 33 24 23 26 25 24 22 17 13 13 12 6 7 9 9 7 7 7 2 355 346 337 332 328 333 329 318 307 305 300 290 277 264 263 260 249 244 239 235 235 232 229 225
1 152 100 273 152 142 148 189 175 166 108 47 115 139 343 198 148 160 203 108 126 124 133 137 139 230 209 187 190 175 178 140 125 100 88 78 73 66 55 49 46 41 41 34 28 28 25 25 23 22 19 16 13 8 357 2 5 3 1 2 3 1 358 350 347 342 331 322 315 316 311 293 280 267 253 244 236 243 247 244 231 230 229 225 213 224
133 296 145 120 294 175 172 209 196 159 160 134 163 162 130 41 337 59 51 37 181 149 172 131 185 252 218 137 178 183 159 143 130 118 111 95 81 70 60 54 49 46 39 29 21 18 24 24 24 25 23 22 16 7 360 2 7 6 2 359 358 354 352 349 342 336 327 317 307 304 299 292 282 268 265 255 236 241 253 254 240 235 233 231 230 225
98 325 134 138 149 186 61 62 279 198 159 160 166 171 143 130 138 164 162 100 68 138 155 156 202 228 81 307 178 179 147 134 135 124 115 109 91 76 64 54 50 46 40 30 18 18 21 23 21 21 11 2 0 2 0 357 357 6 6 1 354 348 347 341 338 334 320 311 309 298 295 293 290 285 278 267 256 248 249 257 258 244 228 226 230 224
157 130 111 105 99 90 59 38 313 217 55 57 174 168 165 109 139 165 170 164 81 37 108 48 157 172 66 185 191 150 128 128 131 116 114 113 100 88 73 63 55 51 40 24 18 15 18 21 14 5 2 357 358 359 359 356 359 2 0 357 350 345 341 335 332 330 322 310 302 301 297 295 294 291 277 254 236 234 237 240 237 231 225 221 219 220
128 93 111 52 90 5 59 90 91 50 129 123 50 56 159 167 178 169 174 162 140 139 149 163 179 106 110 101 92 105 116 121 105 104 116 114 105 91 83 71 61 51 39 30 25 24 20 16 8 3 4 1 359 357 356 352 357 358 356 356 353 347 338 333 332 329 323 316 308 304 297 296 298 295 294 288 269 253 235 228 224 216 214 218 218 215
181 298 162 118 106 71 88 130 104 65 70 60 91 59 25 94 75 93 92 72 128 190 138 163 186 190 130 112 105 111 113 111 109 109 119 121 111 94 84 75 63 51 41 29 25 23 22 15 10 6 2 360 355 353 351 349 346 347 345 346 345 334 336 330 331 325 320 315 315 313 311 303 297 290 284 284 282 270 258 244 244 226 225 222 216 214
69 86 165 169 154 150 148 174 168 168 131 87 39 61 29 109 133 151 132 159 173 165 181 183 149 76 120 127 120 115 111 101 101 108 116 115 110 95 85 72 59 52 43 37 22 22 22 16 10 8 3 356 355 352 348 345 341 338 336 336 345 337 338 333 330 323 320 319 320 322 319 317 308 296 287 281 276 271 264 251 242 237 224 220 213 203
105 71 24 170 160 150 92 63 8 339 124 133 50 28 8 7 352 55 80 149 185 150 187 170 157 152 166 163 145 136 124 122 123 126 119 107 95 87 80 72 64 55 50 40 28 26 25 20 12 6 1 355 352 351 346 341 338 335 334 336 348 348 340 332 329 326 326 327 324 324 325 322 318 310 298 284 282 279 270 264 254 245 238 225 217 205
100 85 45 68 59 55 34 43 3 12 112 61 84 31 4 18 328 140 159 172 117 120 201 178 163 153 185 167 151 138 128 119 117 113 107 105 95 89 88 80 72 63 49 42 34 31 27 17 12 7 357 352 351 345 342 337 339 346 346 349 350 351 348 341 336 336 339 335 331 328 326 322 319 312 303 296 286 283 275 266 259 248 239 229 219 206
107 102 127 89 67 68 67 85 89 82 69 82 72 52 36 352 333 155 87 16 165 190 204 162 172 163 159 155 145 135 132 120 112 106 104 105 95 89 85 76 68 57 42 41 33 32 24 16 9 3 357 350 346 344 341 343 341 338 342 351 356 351 350 345 342 344 345 342 337 331 326 323 321 315 311 304 292 278 269 260 251 246 236 227 216 207
107 58 124 115 90 56 53 71 101 106 105 75 56 53 51 74 76 92 96 85 41 32 349 140 142 109 110 125 112 106 107 108 106 101 105 94 85 87 85 75 65 56 49 38 31 22 16 12 7 1 356 348 344 342 344 344 344 346 348 347 349 351 355 354 351 349 348 344 338 330 326 323 320 318 314 307 296 285 263 253 247 236 227 219 216 208
121 143 169 213 78 44 44 73 92 99 115 88 59 55 68 83 86 77 93 80 79 71 110 126 123 110 62 95 103 105 101 105 101 101 87 85 93 95 85 76 69 60 50 37 33 19 12 9 6 0 355 348 345 346 345 345 345 349 351 349 348 348 352 355 355 354 352 347 343 334 330 328 322 316 314 308 301 288 273 254 242 235 229 214 187 205
55 132 87 186 104 74 44 74 100 106 95 89 63 41 36 41 69 39 57 343 190 136 129 121 132 150 143 121 110 109 111 107 106 93 85 88 90 89 86 81 69 58 52 45 37 24 13 9 1 356 350 348 349 352 352 347 350 357 358 356 352 348 342 355 2 354 354 354 347 344 341 337 331 330 328 321 309 298 285 266 247 154 145 173 185 202
90 137 159 153 94 153 176 245 137 234 128 100 36 9 32 81 104 97 61 48 66 130 133 158 165 127 135 133 115 103 101 102 92 91 104 95 82 85 86 81 70 58 47 38 29 24 17 5 358 350 348 353 355 354 353 350 357 1 357 357 354 348 351 357 2 354 353 353 356 350 347 346 346 346 345 343 332 317 292 270 232 178 181 183 165 119
96 126 102 342 105 150 211 323 253 157 171 129 26 288 274 341 143 100 70 44 21 16 75 54 123 129 134 137 126 125 112 101 96 76 76 100 113 97 82 73 66 58 48 39 31 26 9 6 0 357 353 353 358 357 349 359 358 353 358 0 2 3 7 11 4 358 358 0 1 359 352 355 358 0 356 355 1 358 324 266 218 185 167 130 114 128
121 89 83 40 111 141 182 248 156 185 107 30 332 29 157 120 102 97 87 67 74 94 107 109 120 124 127 118 116 112 109 106 96 92 77 82 93 90 85 77 66 58 47 34 29 18 8 4 2 1 2 3 4 3 3 5 359 355 5 8 11 10 8 6 1 6 7 4 0 1 358 360 2 6 7 8 10 20 24 16 26 52 40 75 75 84
124 107 128 63 48 90 140 149 185 114 323 307 64 82 91 111 115 107 74 60 82 120 126 121 116 112 110 109 109 114 113 105 92 80 81 79 79 83 81 76 71 64 53 39 30 12 8 6 5 6 360 359 18 13 11 4 357 2 7 10 13 11 15 14 19 15 9 6 2 360 357 2 8 11 14 17 17 30 33 25 23 34 46 57 67 57
116 103 107 100 326 138 95 69 51 333 246 117 137 178 191 158 205 268 113 94 112 141 140 128 122 122 122 123 125 127 123 112 91 71 63 73 74 72 73 73 70 66 59 48 37 17 4 355 1 2 3 27 28 21 12 3 3 5 9 14 11 14 17 18 16 12 5 4 1 0 359 5 15 18 22 18 22 23 35 41 22 14 32 53 62 70
331 131 203 121 19 119 134 108 101 88 230 195 182 88 106 99 114 162 93 123 156 144 146 138 136 138 134 135 141 146 164 162 95 65 56 69 70 77 74 71 68 66 58 43 34 31 10 360 6 13 24 29 31 25 13 12 13 12 15 14 14 17 19 20 16 10 8 7 2 5 4 5 16 27 30 31 26 24 27 42 46 43 355 54 70 75
53 63 84 92 131 140 141 144 176 177 213 64 156 139 106 118 198 232 253 152 161 158 155 148 138 144 145 146 147 162 190 178 115 105 82 83 80 74 72 57 55 54 48 40 27 17 6 352 0 18 31 33 30 16 15 23 25 21 19 16 16 21 21 16 10 9 9 1 357 10 14 9 18 27 33 35 31 28 28 35 36 44 42 25 66 73
46 15 55 86 117 120 141 127 158 241 84 113 149 138 223 226 194 257 210 180 152 162 155 152 147 148 148 145 152 151 193 159 147 135 127 108 94 74 66 61 51 45 43 38 35 7 19 21 33 34 33 28 18 6 17 32 35 30 25 20 19 22 20 11 4 2 2 359 359 8 19 19 21 31 36 39 38 35 35 35 37 46 58 39 55 67
9 35 16 117 121 106 100 85 65 163 271 177 141 223 261 228 262 188 183 73 147 148 150 141 138 136 136 135 139 97 45 75 115 128 127 119 101 85 73 71 67 56 51 40 26 11 44 43 44 44 38 28 16 10 13 30 38 36 31 28 25 22 14 5 4 5 9 7 8 20 21 23 23 24 29 33 41 41 36 33 32 39 69 65 54 59
54 91 85 120 95 124 112 107 85 2 31 107 63 272 322 212 163 171 44 133 140 135 134 134 131 132 120 103 101 102 110 110 117 120 115 101 95 89 77 72 71 66 63 60 42 31 33 41 42 38 33 22 15 15 13 24 38 38 35 34 27 18 8 4 7 12 14 16 16 25 27 27 23 24 23 24 30 42 37 32 38 43 54 61 63 63
74 127 107 116 116 79 60 93 117 192 134 70 123 81 331 266 59 91 117 108 117 122 126 127 125 121 111 105 109 115 117 117 116 113 107 100 89 79 73 68 60 53 42 39 42 32 32 47 45 43 32 16 16 20 15 19 32 30 32 35 23 14 12 7 8 14 23 25 22 24 30 30 28 22 22 22 25 40 41 32 37 40 39 56 63 63
330 81 119 167 249 123 141 165 184 37 107 114 230 165 153 15 109 141 131 126 125 130 130 124 117 116 119 120 122 117 116 115 109 107 101 93 90 75 69 66 64 53 49 48 47 31 33 52 48 46 37 29 28 27 23 20 29 28 30 28 11 13 14 15 15 16 22 27 28 23 20 22 32 31 24 23 27 33 39 39 39 43 41 38 55 57
4 310 322 151 158 338 66 84 133 217 298 91 79 84 68 97 115 127 125 130 134 127 134 126 122 119 123 122 120 120 115 114 112 110 106 99 90 78 69 62 50 48 43 43 34 20 32 44 44 45 43 35 30 28 26 24 28 24 26 16 15 22 21 19 21 23 22 26 30 29 20 22 37 35 32 26 30 35 34 38 40 44 36 43 49 54
63 98 94 90 109 114 71 55 100 109 113 81 70 81 98 97 86 108 122 118 119 130 127 129 127 126 125 124 119 119 117 118 110 104 98 90 88 79 75 63 53 45 49 45 38 30 34 38 39 37 35 31 24 26 24 23 25 23 8 6 15 20 28 28 26 23 22 24 27 29 30 29 32 34 32 31 34 42 41 37 38 43 44 49 52 57
136 42 27 112 147 148 72 46 81 101 103 100 90 82 78 83 96 110 108 110 117 106 98 106 117 121 124 118 118 121 120 118 110 106 102 98 87 78 74 66 59 50 48 51 35 31 39 37 39 33 27 26 13 14 18 21 25 20 5 7 10 21 31 33 27 25 23 24 26 27 34 40 32 30 31 33 29 35 40 36 36 39 40 39 43 51
146 174 98 116 111 75 133 121 94 81 80 93 107 110 97 90 89 89 104 109 104 98 104 108 108 108 113 115 120 121 120 119 118 116 110 105 99 85 81 75 70 63 51 48 38 33 42 37 39 32 28 27 15 16 19 22 22 15 11 7 4 8 34 38 32 28 24 22 29 30 30 41 36 42 47 43 43 37 33 40 41 49 45 38 34 51
130 163 136 152 109 98 97 110 110 87 69 72 89 94 107 113 107 104 106 106 103 104 102 91 94 104 110 117 121 122 121 120 119 118 114 108 105 95 85 76 65 58 42 37 28 37 45 32 35 26 21 14 6 12 22 24 21 16 11 6 6 11 32 34 35 33 28 23 29 35 33 35 34 39 42 52 58 54 40 30 38 48 56 43 39 45
152 137 129 120 120 159 170 168 149 130 140 110 108 114 115 114 111 106 101 97 98 105 105 103 96 96 103 111 118 121 121 121 120 120 116 109 103 98 93 88 85 73 61 52 76 51 55 46 35 31 27 24 14 20 24 24 22 20 18 17 14 15 26 27 32 34 33 30 28 23 34 44 43 34 38 48 55 67 66 54 49 33 55 61 49 60
204 166 166 165 158 178 160 153 122 78 105 123 123 117 114 111 109 104 101 103 102 101 106 109 112 108 101 99 109 115 118 120 118 115 112 109 97 93 88 82 77 70 60 31 62 54 47 40 31 31 33 29 26 30 29 31 23 22 19 18 21 23 24 19 26 35 36 33 36 15 14 34 44 46 47 39 45 56 68 74 55 52 54 57 57 63